| time (UTC) | temp F | wind direction | speed MPH | gust MPH | rain 1hr in | rain 24hr in | rain mn in | humidity % | barometer mb |
| 20260902002504 | 70 | 213 | 1.0 | 2.0 | 0.00 | 0.00 | 0.00 | 86 | 1026.7 |
| 20260902002003 | 70 | 233 | 1.0 | 2.0 | 0.00 | 0.00 | 0.00 | 86 | 1026.7 |
| 20260902001503 | 70 | 217 | 0.0 | 2.0 | 0.00 | 0.00 | 0.00 | 86 | 1026.7 |
| 20260902001003 | 70 | 231 | 1.0 | 3.0 | 0.00 | 0.00 | 0.00 | 86 | 1027.0 |
| 20260902000004 | 71 | 238 | 0.0 | 1.0 | 0.00 | 0.00 | 0.00 | 86 | 1026.9 |
| 20260901235504 | 70 | 237 | 0.0 | 1.0 | 0.00 | 0.00 | 0.00 | 86 | 1026.8 |
| 20260901235004 | 71 | 238 | 0.0 | 1.0 | 0.00 | 0.00 | 0.00 | 86 | 1026.9 |
| 20260901234504 | 71 | 239 | 0.0 | 1.0 | 0.00 | 0.00 | 0.00 | 86 | 1027.1 |
| 20260901234003 | 71 | 238 | 1.0 | 2.0 | 0.00 | 0.00 | 0.00 | 86 | 1027.0 |
| 20260901233504 | 71 | 234 | 1.0 | 2.0 | 0.00 | 0.00 | 0.00 | 85 | 1027.1 |
| 20260901233004 | 71 | 184 | 1.0 | 2.0 | 0.00 | 0.00 | 0.00 | 85 | 1027.0 |
| 20260901232003 | 71 | 41 | 0.0 | 1.0 | 0.00 | 0.00 | 0.00 | 85 | 1027.4 |
| 20260901231503 | 71 | 255 | 0.0 | 1.0 | 0.00 | 0.00 | 0.00 | 85 | 1027.4 |
| 20260901231004 | 71 | 255 | 0.0 | 1.0 | 0.00 | 0.00 | 0.00 | 85 | 1027.3 |
| 20260901230504 | 71 | 256 | 0.0 | 2.0 | 0.00 | 0.00 | 0.00 | 85 | 1027.3 |
| 20260901230004 | 71 | 218 | 0.0 | 1.0 | 0.00 | 0.00 | 0.00 | 85 | 1027.3 |
| 20260901225503 | 71 | 218 | 1.0 | 2.0 | 0.00 | 0.00 | 0.00 | 85 | 1027.2 |
| 20260901225003 | 71 | 218 | 1.0 | 2.0 | 0.00 | 0.00 | 0.00 | 84 | 1027.0 |
| 20260901224504 | 71 | 218 | 1.0 | 1.0 | 0.00 | 0.00 | 0.00 | 84 | 1027.0 |
| 20260901224004 | 71 | 218 | 0.0 | 1.0 | 0.00 | 0.00 | 0.00 | 84 | 1027.2 |
| 20260901223503 | 71 | 218 | 0.0 | 1.0 | 0.00 | 0.00 | 0.00 | 84 | 1027.0 |
| 20260901222504 | 72 | 218 | 0.0 | 1.0 | 0.00 | 0.00 | 0.00 | 85 | 1027.0 |
| 20260901222004 | 72 | 218 | 1.0 | 2.0 | 0.00 | 0.00 | 0.00 | 85 | 1026.9 |
| 20260901221504 | 71 | 346 | 0.0 | 2.0 | 0.00 | 0.00 | 0.00 | 85 | 1026.9 |
| 20260901221004 | 71 | 346 | 0.0 | 2.0 | 0.00 | 0.00 | 0.00 | 84 | 1026.8 |
| 20260901220503 | 71 | 346 | 0.0 | 1.0 | 0.00 | 0.00 | 0.00 | 84 | 1026.9 |
| 20260901220004 | 71 | 346 | 0.0 | 0.0 | 0.00 | 0.00 | 0.00 | 84 | 1026.8 |
| 20260901215505 | 72 | 347 | 0.0 | 1.0 | 0.00 | 0.00 | 0.00 | 84 | 1026.8 |
| 20260901214504 | 72 | 17 | 0.0 | 1.0 | 0.00 | 0.00 | 0.00 | 83 | 1026.8 |
| 20260901214005 | 72 | 26 | 0.0 | 1.0 | 0.00 | 0.00 | 0.00 | 83 | 1026.9 |
| 20260901213504 | 72 | 25 | 0.0 | 1.0 | 0.00 | 0.00 | 0.00 | 83 | 1026.8 |
| 20260901213004 | 73 | 45 | 0.0 | 1.0 | 0.00 | 0.00 | 0.00 | 83 | 1026.7 |
| 20260901212504 | 73 | 45 | 0.0 | 1.0 | 0.00 | 0.00 | 0.00 | 82 | 1026.7 |
| 20260901212004 | 73 | 46 | 0.0 | 1.0 | 0.00 | 0.00 | 0.00 | 82 | 1026.9 |
| 20260901211504 | 73 | 46 | 0.0 | 1.0 | 0.00 | 0.00 | 0.00 | 81 | 1027.0 |
| 20260901211004 | 73 | 46 | 0.0 | 0.0 | 0.00 | 0.00 | 0.00 | 81 | 1026.8 |
| 20260901210004 | 74 | 45 | 0.0 | 2.0 | 0.00 | 0.00 | 0.00 | 81 | 1026.9 |
| 20260901205504 | 74 | 24 | 0.0 | 2.0 | 0.00 | 0.00 | 0.00 | 81 | 1027.0 |
| 20260901205004 | 74 | 263 | 1.0 | 2.0 | 0.00 | 0.00 | 0.00 | 81 | 1026.8 |
| 20260901204504 | 74 | 272 | 0.0 | 0.0 | 0.00 | 0.00 | 0.00 | 81 | 1026.8 |
| 20260901204004 | 74 | 272 | 0.0 | 2.0 | 0.00 | 0.00 | 0.00 | 81 | 1026.6 |
| 20260901203504 | 74 | 244 | 1.0 | 6.0 | 0.00 | 0.00 | 0.00 | 81 | 1026.7 |
| 20260901202504 | 74 | 185 | 1.0 | 2.0 | 0.00 | 0.00 | 0.00 | 82 | 1026.5 |
| 20260901202003 | 74 | 59 | 0.0 | 1.0 | 0.00 | 0.00 | 0.00 | 83 | 1026.5 |
| 20260901201504 | 74 | 60 | 0.0 | 1.0 | 0.00 | 0.00 | 0.00 | 83 | 1026.6 |
| 20260901201004 | 74 | 60 | 0.0 | 0.0 | 0.00 | 0.00 | 0.00 | 82 | 1026.3 |
| 20260901200004 | 75 | 60 | 0.0 | 1.0 | 0.00 | 0.00 | 0.00 | 82 | 1026.4 |
| 20260901195504 | 75 | 60 | 0.0 | 1.0 | 0.00 | 0.00 | 0.00 | 82 | 1026.2 |
| 20260901195003 | 75 | 60 | 1.0 | 3.0 | 0.00 | 0.00 | 0.00 | 82 | 1026.3 |
| 20260901194504 | 75 | 60 | 1.0 | 3.0 | 0.00 | 0.00 | 0.00 | 81 | 1026.1 |
| 20260901193504 | 75 | 64 | 1.0 | 2.0 | 0.00 | 0.00 | 0.00 | 80 | 1025.7 |
| 20260901193003 | 76 | 62 | 1.0 | 2.0 | 0.00 | 0.00 | 0.00 | 80 | 1025.9 |
| 20260901192504 | 76 | 62 | 1.0 | 2.0 | 0.00 | 0.00 | 0.00 | 80 | 1025.7 |
| 20260901192004 | 76 | 62 | 1.0 | 2.0 | 0.00 | 0.00 | 0.00 | 79 | 1025.8 |
| 20260901191504 | 76 | 63 | 1.0 | 2.0 | 0.00 | 0.00 | 0.00 | 79 | 1025.8 |
| 20260901191005 | 76 | 66 | 2.0 | 2.0 | 0.00 | 0.00 | 0.00 | 79 | 1025.9 |
| 20260901190503 | 76 | 66 | 1.0 | 3.0 | 0.00 | 0.00 | 0.00 | 78 | 1025.7 |
| 20260901190003 | 76 | 61 | 1.0 | 5.0 | 0.00 | 0.00 | 0.00 | 78 | 1025.8 |
| 20260901185004 | 77 | 55 | 1.0 | 2.0 | 0.00 | 0.00 | 0.00 | 77 | 1025.6 |
| 20260901184504 | 77 | 36 | 2.0 | 3.0 | 0.00 | 0.00 | 0.00 | 76 | 1025.5 |
| 20260901184004 | 77 | 75 | 0.0 | 3.0 | 0.00 | 0.00 | 0.00 | 76 | 1025.5 |
| 20260901183503 | 77 | 79 | 1.0 | 2.0 | 0.00 | 0.00 | 0.00 | 75 | 1025.5 |
| 20260901183004 | 78 | 46 | 2.0 | 6.0 | 0.00 | 0.00 | 0.00 | 75 | 1025.5 |
| 20260901182504 | 78 | 68 | 2.0 | 3.0 | 0.00 | 0.00 | 0.00 | 74 | 1025.5 |
| 20260901182004 | 78 | 59 | 2.0 | 5.0 | 0.00 | 0.00 | 0.00 | 73 | 1025.3 |
| 20260901181504 | 78 | 63 | 2.0 | 6.0 | 0.00 | 0.00 | 0.00 | 73 | 1025.4 |
| 20260901181003 | 78 | 55 | 2.0 | 3.0 | 0.00 | 0.00 | 0.00 | 72 | 1025.5 |
| 20260901180504 | 78 | 81 | 1.0 | 5.0 | 0.00 | 0.00 | 0.00 | 72 | 1025.5 |
| 20260901180004 | 78 | 63 | 2.0 | 6.0 | 0.00 | 0.00 | 0.00 | 72 | 1025.5 |
| 20260901175504 | 79 | 48 | 3.0 | 6.0 | 0.00 | 0.00 | 0.00 | 71 | 1025.5 |
| 20260901175004 | 79 | 50 | 2.0 | 6.0 | 0.00 | 0.00 | 0.00 | 71 | 1025.5 |
| 20260901173504 | 79 | 56 | 3.0 | 7.0 | 0.00 | 0.00 | 0.00 | 70 | 1025.2 |
| 20260901173004 | 79 | 42 | 2.0 | 5.0 | 0.00 | 0.00 | 0.00 | 70 | 1025.2 |
| 20260901172504 | 80 | 43 | 3.0 | 6.0 | 0.00 | 0.00 | 0.00 | 69 | 1025.1 |
| 20260901172004 | 80 | 47 | 2.0 | 7.0 | 0.00 | 0.00 | 0.00 | 68 | 1025.3 |
| 20260901171504 | 81 | 23 | 2.0 | 6.0 | 0.00 | 0.00 | 0.00 | 67 | 1025.1 |
| 20260901171004 | 81 | 82 | 3.0 | 7.0 | 0.00 | 0.00 | 0.00 | 66 | 1025.2 |
| 20260901170504 | 81 | 48 | 2.0 | 6.0 | 0.00 | 0.00 | 0.00 | 65 | 1025.0 |
| 20260901170003 | 82 | 65 | 2.0 | 6.0 | 0.00 | 0.00 | 0.00 | 63 | 1024.9 |
| 20260901165503 | 82 | 60 | 3.0 | 7.0 | 0.00 | 0.00 | 0.00 | 63 | 1024.8 |
| 20260901165004 | 82 | 88 | 3.0 | 6.0 | 0.00 | 0.00 | 0.00 | 62 | 1024.8 |
| 20260901164504 | 83 | 58 | 2.0 | 6.0 | 0.00 | 0.00 | 0.00 | 60 | 1024.6 |
| 20260901164004 | 84 | 113 | 1.0 | 3.0 | 0.00 | 0.00 | 0.00 | 58 | 1024.6 |
| 20260901163503 | 84 | 329 | 0.0 | 2.0 | 0.00 | 0.00 | 0.00 | 57 | 1024.6 |
| 20260901163004 | 83 | 9 | 1.0 | 2.0 | 0.00 | 0.00 | 0.00 | 59 | 1024.6 |
| 20260901162504 | 83 | 45 | 2.0 | 5.0 | 0.00 | 0.00 | 0.00 | 60 | 1024.8 |
| 20260901162004 | 85 | 54 | 2.0 | 3.0 | 0.00 | 0.00 | 0.00 | 58 | 1024.6 |
| 20260901161004 | 82 | 64 | 2.0 | 5.0 | 0.00 | 0.00 | 0.00 | 60 | 1024.6 |
| 20260901160004 | 82 | 62 | 3.0 | 6.0 | 0.00 | 0.00 | 0.00 | 61 | 1024.5 |
| 20260901155503 | 82 | 46 | 3.0 | 6.0 | 0.00 | 0.00 | 0.00 | 61 | 1024.5 |
| 20260901155004 | 82 | 58 | 3.0 | 7.0 | 0.00 | 0.00 | 0.00 | 61 | 1024.7 |
| 20260901154004 | 82 | 48 | 3.0 | 7.0 | 0.00 | 0.00 | 0.00 | 61 | 1024.6 |
| 20260901153003 | 84 | 45 | 3.0 | 7.0 | 0.00 | 0.00 | 0.00 | 60 | 1024.8 |
| 20260901152503 | 83 | 47 | 3.0 | 6.0 | 0.00 | 0.00 | 0.00 | 61 | 1024.8 |
| 20260901152003 | 82 | 33 | 2.0 | 6.0 | 0.00 | 0.00 | 0.00 | 62 | 1025.0 |
| 20260901150503 | 82 | 68 | 4.0 | 8.0 | 0.00 | 0.00 | 0.00 | 63 | 1025.4 |
| 20260901150004 | 81 | 46 | 2.0 | 9.0 | 0.00 | 0.00 | 0.00 | 64 | 1025.5 |
| 20260901145004 | 81 | 53 | 4.0 | 7.0 | 0.00 | 0.00 | 0.00 | 65 | 1025.9 |
| 20260901144503 | 80 | 48 | 3.0 | 6.0 | 0.00 | 0.00 | 0.00 | 66 | 1025.9 |
| 20260901144004 | 80 | 47 | 2.0 | 7.0 | 0.00 | 0.00 | 0.00 | 65 | 1025.8 |
| 20260901143505 | 80 | 55 | 5.0 | 7.0 | 0.00 | 0.00 | 0.00 | 66 | 1026.0 |
| 20260901143003 | 80 | 58 | 3.0 | 8.0 | 0.00 | 0.00 | 0.00 | 66 | 1026.1 |
| 20260901142004 | 82 | 44 | 2.0 | 6.0 | 0.00 | 0.00 | 0.00 | 64 | 1026.4 |
| 20260901141504 | 82 | 50 | 2.0 | 8.0 | 0.00 | 0.00 | 0.00 | 64 | 1026.4 |
| 20260901140504 | 82 | 61 | 4.0 | 9.0 | 0.00 | 0.00 | 0.00 | 64 | 1026.2 |
| 20260901135504 | 82 | 40 | 2.0 | 7.0 | 0.00 | 0.00 | 0.00 | 63 | 1026.2 |
| 20260901135003 | 82 | 39 | 4.0 | 9.0 | 0.00 | 0.00 | 0.00 | 64 | 1026.0 |
| 20260901134504 | 82 | 39 | 5.0 | 9.0 | 0.00 | 0.00 | 0.00 | 64 | 1026.2 |
| 20260901134004 | 83 | 56 | 5.0 | 13.0 | 0.00 | 0.00 | 0.00 | 63 | 1026.0 |
| 20260901133003 | 83 | 46 | 5.0 | 9.0 | 0.00 | 0.00 | 0.00 | 62 | 1026.1 |
| 20260901132504 | 83 | 40 | 5.0 | 10.0 | 0.00 | 0.00 | 0.00 | 62 | 1026.3 |
| 20260901132004 | 84 | 58 | 5.0 | 10.0 | 0.00 | 0.00 | 0.00 | 59 | 1026.2 |
| 20260901131504 | 84 | 71 | 3.0 | 7.0 | 0.00 | 0.00 | 0.00 | 59 | 1026.3 |
| 20260901131003 | 83 | 49 | 3.0 | 6.0 | 0.00 | 0.00 | 0.00 | 59 | 1026.3 |
| 20260901130504 | 84 | 74 | 1.0 | 5.0 | 0.00 | 0.00 | 0.00 | 57 | 1026.3 |
| 20260901130004 | 84 | 60 | 1.0 | 2.0 | 0.00 | 0.00 | 0.00 | 57 | 1026.4 |
| 20260901125504 | 84 | 60 | 1.0 | 3.0 | 0.00 | 0.00 | 0.00 | 57 | 1026.5 |
| 20260901125004 | 83 | 65 | 2.0 | 3.0 | 0.00 | 0.00 | 0.00 | 58 | 1026.4 |
| 20260901124504 | 83 | 60 | 2.0 | 6.0 | 0.00 | 0.00 | 0.00 | 58 | 1026.3 |
| 20260901124004 | 83 | 37 | 1.0 | 6.0 | 0.00 | 0.00 | 0.00 | 59 | 1026.2 |
| 20260901123504 | 83 | 332 | 2.0 | 5.0 | 0.00 | 0.00 | 0.00 | 58 | 1026.2 |
| 20260901121503 | 81 | 356 | 2.0 | 10.0 | 0.00 | 0.00 | 0.00 | 60 | 1026.3 |
| 20260901121004 | 82 | 58 | 3.0 | 7.0 | 0.00 | 0.00 | 0.00 | 60 | 1026.3 |
| 20260901120504 | 82 | 51 | 3.0 | 5.0 | 0.00 | 0.00 | 0.00 | 61 | 1026.5 |
| 20260901120003 | 82 | 57 | 5.0 | 8.0 | 0.00 | 0.00 | 0.00 | 62 | 1026.4 |
| 20260901115504 | 82 | 48 | 3.0 | 7.0 | 0.00 | 0.00 | 0.00 | 60 | 1026.3 |
| 20260901115004 | 82 | 48 | 1.0 | 5.0 | 0.00 | 0.00 | 0.00 | 60 | 1026.6 |
| 20260901114004 | 83 | 34 | 5.0 | 8.0 | 0.00 | 0.00 | 0.00 | 60 | 1026.3 |
| 20260901113504 | 83 | 207 | 2.0 | 3.0 | 0.00 | 0.00 | 0.00 | 60 | 1026.5 |
| 20260901113004 | 82 | 119 | 1.0 | 5.0 | 0.00 | 0.00 | 0.00 | 59 | 1026.6 |
| 20260901112504 | 81 | 47 | 2.0 | 6.0 | 0.00 | 0.00 | 0.00 | 62 | 1027.0 |
| 20260901112004 | 82 | 69 | 2.0 | 3.0 | 0.00 | 0.00 | 0.00 | 62 | 1027.0 |
| 20260901111503 | 80 | 8 | 1.0 | 7.0 | 0.00 | 0.00 | 0.00 | 63 | 1027.0 |
| 20260901111004 | 80 | 74 | 2.0 | 5.0 | 0.00 | 0.00 | 0.00 | 64 | 1027.3 |
| 20260901110504 | 79 | 283 | 1.0 | 2.0 | 0.00 | 0.00 | 0.00 | 64 | 1027.7 |
| 20260901105504 | 79 | 78 | 1.0 | 3.0 | 0.00 | 0.00 | 0.00 | 65 | 1027.5 |
| 20260901105004 | 80 | 59 | 3.0 | 6.0 | 0.00 | 0.00 | 0.00 | 65 | 1027.4 |
| 20260901104005 | 78 | 50 | 2.0 | 5.0 | 0.00 | 0.00 | 0.00 | 66 | 1027.4 |
| 20260901103504 | 77 | 73 | 1.0 | 3.0 | 0.00 | 0.00 | 0.00 | 68 | 1027.6 |
| 20260901103004 | 77 | 54 | 1.0 | 3.0 | 0.00 | 0.00 | 0.00 | 69 | 1027.9 |
| 20260901102504 | 77 | 78 | 1.0 | 5.0 | 0.00 | 0.00 | 0.00 | 69 | 1027.8 |
| 20260901101504 | 77 | 57 | 1.0 | 3.0 | 0.00 | 0.00 | 0.00 | 69 | 1027.9 |
| 20260901101003 | 76 | 64 | 2.0 | 6.0 | 0.00 | 0.00 | 0.00 | 70 | 1027.8 |
| 20260901100003 | 77 | 34 | 3.0 | 5.0 | 0.00 | 0.00 | 0.00 | 69 | 1027.7 |
| 20260901095504 | 77 | 74 | 1.0 | 7.0 | 0.00 | 0.00 | 0.00 | 69 | 1027.6 |
| 20260901094504 | 78 | 57 | 2.0 | 3.0 | 0.00 | 0.00 | 0.00 | 68 | 1027.8 |
| 20260901094004 | 78 | 48 | 1.0 | 5.0 | 0.00 | 0.00 | 0.00 | 68 | 1027.6 |
| 20260901093504 | 78 | 43 | 2.0 | 3.0 | 0.00 | 0.00 | 0.00 | 68 | 1027.9 |
| 20260901093004 | 77 | 53 | 1.0 | 2.0 | 0.00 | 0.00 | 0.00 | 69 | 1027.7 |
| 20260901092504 | 77 | 63 | 1.0 | 3.0 | 0.00 | 0.00 | 0.00 | 69 | 1027.5 |
| 20260901092004 | 77 | 112 | 1.0 | 5.0 | 0.00 | 0.00 | 0.00 | 69 | 1027.5 |
| 20260901091504 | 78 | 344 | 1.0 | 3.0 | 0.00 | 0.00 | 0.00 | 68 | 1027.6 |
| 20260901091004 | 78 | 89 | 3.0 | 6.0 | 0.00 | 0.00 | 0.00 | 69 | 1027.7 |
| 20260901090504 | 77 | 60 | 2.0 | 5.0 | 0.00 | 0.00 | 0.00 | 68 | 1027.6 |
| 20260901090004 | 77 | 51 | 3.0 | 7.0 | 0.00 | 0.00 | 0.00 | 70 | 1027.3 |
| 20260901085504 | 77 | 60 | 2.0 | 6.0 | 0.00 | 0.00 | 0.00 | 70 | 1027.4 |
| 20260901085004 | 76 | 78 | 2.0 | 5.0 | 0.00 | 0.00 | 0.00 | 71 | 1027.5 |
| 20260901084503 | 76 | 49 | 2.0 | 6.0 | 0.00 | 0.00 | 0.00 | 71 | 1027.6 |
| 20260901084004 | 76 | 81 | 3.0 | 5.0 | 0.00 | 0.00 | 0.00 | 72 | 1027.5 |
| 20260901083504 | 76 | 92 | 2.0 | 6.0 | 0.00 | 0.00 | 0.00 | 73 | 1027.4 |
| 20260901083004 | 76 | 74 | 3.0 | 6.0 | 0.00 | 0.00 | 0.00 | 73 | 1027.3 |
| 20260901082503 | 75 | 55 | 2.0 | 6.0 | 0.00 | 0.00 | 0.00 | 73 | 1027.1 |
| 20260901082003 | 75 | 71 | 2.0 | 5.0 | 0.00 | 0.00 | 0.00 | 73 | 1027.2 |
| 20260901081503 | 75 | 67 | 1.0 | 6.0 | 0.00 | 0.00 | 0.00 | 73 | 1027.1 |
| 20260901081003 | 74 | 57 | 3.0 | 5.0 | 0.00 | 0.00 | 0.00 | 75 | 1027.1 |
| 20260901080503 | 75 | 69 | 2.0 | 5.0 | 0.00 | 0.00 | 0.00 | 74 | 1027.3 |
| 20260901080004 | 75 | 51 | 2.0 | 5.0 | 0.00 | 0.00 | 0.00 | 75 | 1027.1 |
| 20260901075504 | 75 | 66 | 2.0 | 6.0 | 0.00 | 0.00 | 0.00 | 75 | 1027.0 |
| 20260901075004 | 74 | 48 | 1.0 | 5.0 | 0.00 | 0.00 | 0.00 | 75 | 1027.1 |
| 20260901074004 | 73 | 200 | 1.0 | 2.0 | 0.00 | 0.00 | 0.00 | 77 | 1027.2 |
| 20260901073004 | 73 | 223 | 1.0 | 2.0 | 0.00 | 0.00 | 0.00 | 75 | 1026.9 |
| 20260901072504 | 72 | 76 | 1.0 | 3.0 | 0.00 | 0.00 | 0.00 | 77 | 1026.9 |
| 20260901072004 | 72 | 225 | 1.0 | 2.0 | 0.00 | 0.00 | 0.00 | 77 | 1027.1 |
| 20260901071004 | 72 | 225 | 1.0 | 1.0 | 0.00 | 0.00 | 0.00 | 78 | 1026.9 |
| 20260901070504 | 71 | 220 | 0.0 | 2.0 | 0.00 | 0.00 | 0.00 | 79 | 1027.0 |
| 20260901065503 | 69 | 194 | 0.0 | 1.0 | 0.00 | 0.00 | 0.00 | 81 | 1027.0 |
| 20260901065003 | 69 | 194 | 1.0 | 1.0 | 0.00 | 0.00 | 0.00 | 81 | 1026.9 |
| 20260901064504 | 69 | 194 | 0.0 | 0.0 | 0.00 | 0.00 | 0.00 | 81 | 1026.9 |
| 20260901063504 | 69 | 194 | 0.0 | 0.0 | 0.00 | 0.00 | 0.00 | 81 | 1026.6 |
| 20260901063004 | 68 | 194 | 0.0 | 1.0 | 0.00 | 0.00 | 0.00 | 82 | 1026.5 |
| 20260901062503 | 68 | 194 | 0.0 | 0.0 | 0.00 | 0.00 | 0.00 | 82 | 1026.6 |
| 20260901062004 | 67 | 194 | 0.0 | 1.0 | 0.00 | 0.00 | 0.00 | 83 | 1026.5 |
| 20260901061504 | 67 | 194 | 1.0 | 2.0 | 0.00 | 0.00 | 0.00 | 84 | 1026.3 |
| 20260901060503 | 66 | 194 | 0.0 | 1.0 | 0.00 | 0.00 | 0.00 | 85 | 1026.2 |
| 20260901060003 | 66 | 194 | 1.0 | 2.0 | 0.00 | 0.00 | 0.00 | 85 | 1026.4 |
| 20260901055504 | 66 | 194 | 0.0 | 1.0 | 0.00 | 0.00 | 0.00 | 86 | 1026.4 |
| 20260901055003 | 66 | 194 | 0.0 | 1.0 | 0.00 | 0.00 | 0.00 | 86 | 1026.2 |
| 20260901054504 | 66 | 193 | 0.0 | 1.0 | 0.00 | 0.00 | 0.00 | 85 | 1026.4 |
| 20260901054005 | 66 | 216 | 1.0 | 2.0 | 0.00 | 0.00 | 0.00 | 85 | 1026.2 |
| 20260901053504 | 67 | 226 | 0.0 | 1.0 | 0.00 | 0.00 | 0.00 | 86 | 1026.2 |
| 20260901053004 | 67 | 226 | 1.0 | 1.0 | 0.00 | 0.00 | 0.00 | 85 | 1026.0 |
| 20260901052504 | 67 | 226 | 0.0 | 0.0 | 0.00 | 0.00 | 0.00 | 85 | 1025.8 |
| 20260901052004 | 67 | 226 | 0.0 | 0.0 | 0.00 | 0.00 | 0.00 | 85 | 1025.5 |
| 20260901051503 | 67 | 226 | 0.0 | 0.0 | 0.00 | 0.00 | 0.00 | 85 | 1025.6 |
| 20260901050004 | 67 | 226 | 1.0 | 1.0 | 0.00 | 0.00 | 0.00 | 84 | 1025.4 |
| 20260901045504 | 67 | 226 | 1.0 | 1.0 | 0.00 | 0.00 | 0.00 | 84 | 1025.3 |
| 20260901045004 | 67 | 226 | 0.0 | 1.0 | 0.00 | 0.00 | 0.00 | 84 | 1025.3 |
| 20260901044506 | 67 | 225 | 1.0 | 1.0 | 0.00 | 0.00 | 0.00 | 85 | 1025.4 |
| 20260901043503 | 67 | 189 | 1.0 | 2.0 | 0.00 | 0.00 | 0.00 | 84 | 1025.4 |
| 20260901043004 | 67 | 193 | 1.0 | 2.0 | 0.00 | 0.00 | 0.00 | 84 | 1025.4 |
| 20260901042503 | 68 | 199 | 1.0 | 2.0 | 0.00 | 0.00 | 0.00 | 84 | 1025.4 |
| 20260901042005 | 68 | 238 | 0.0 | 1.0 | 0.00 | 0.00 | 0.00 | 84 | 1025.2 |
| 20260901041004 | 67 | 236 | 1.0 | 2.0 | 0.00 | 0.00 | 0.00 | 85 | 1025.6 |
| 20260901040504 | 67 | 229 | 0.0 | 2.0 | 0.00 | 0.00 | 0.00 | 84 | 1025.3 |
| 20260901040003 | 67 | 220 | 1.0 | 3.0 | 0.00 | 0.00 | 0.00 | 84 | 1025.2 |
| 20260901035504 | 68 | 248 | 1.0 | 2.0 | 0.00 | 0.00 | 0.00 | 83 | 1025.2 |
| 20260901035004 | 68 | 244 | 0.0 | 2.0 | 0.00 | 0.00 | 0.00 | 84 | 1025.3 |
| 20260901034504 | 68 | 216 | 1.0 | 2.0 | 0.00 | 0.00 | 0.00 | 84 | 1025.6 |
| 20260901034004 | 68 | 231 | 1.0 | 2.0 | 0.00 | 0.00 | 0.00 | 85 | 1025.5 |
| 20260901033504 | 68 | 236 | 1.0 | 3.0 | 0.00 | 0.00 | 0.00 | 84 | 1025.5 |
| 20260901033004 | 68 | 220 | 2.0 | 3.0 | 0.00 | 0.00 | 0.00 | 83 | 1025.6 |
| 20260901032503 | 68 | 39 | 1.0 | 3.0 | 0.00 | 0.00 | 0.00 | 84 | 1025.8 |
| 20260901031504 | 68 | 222 | 1.0 | 2.0 | 0.00 | 0.00 | 0.00 | 84 | 1025.7 |
| 20260901031004 | 68 | 226 | 1.0 | 2.0 | 0.00 | 0.00 | 0.00 | 84 | 1025.8 |
| 20260901030503 | 68 | 352 | 1.0 | 2.0 | 0.00 | 0.00 | 0.00 | 84 | 1025.9 |
| 20260901030004 | 68 | 240 | 0.0 | 2.0 | 0.00 | 0.00 | 0.00 | 84 | 1025.8 |
| 20260901025504 | 68 | 237 | 1.0 | 2.0 | 0.00 | 0.00 | 0.00 | 84 | 1025.6 |
| 20260901025003 | 68 | 134 | 0.0 | 2.0 | 0.00 | 0.00 | 0.00 | 84 | 1025.6 |
| 20260901024504 | 68 | 137 | 1.0 | 2.0 | 0.00 | 0.00 | 0.00 | 84 | 1025.7 |
| 20260901024004 | 68 | 146 | 0.0 | 1.0 | 0.00 | 0.00 | 0.00 | 84 | 1025.7 |
| 20260901023503 | 68 | 157 | 0.0 | 2.0 | 0.00 | 0.00 | 0.00 | 84 | 1025.6 |
| 20260901022504 | 68 | 154 | 1.0 | 2.0 | 0.00 | 0.00 | 0.00 | 84 | 1025.7 |
| 20260901022004 | 68 | 167 | 1.0 | 1.0 | 0.00 | 0.00 | 0.00 | 84 | 1025.9 |
| 20260901021503 | 69 | 219 | 1.0 | 3.0 | 0.00 | 0.00 | 0.00 | 84 | 1025.8 |
| 20260901021003 | 69 | 246 | 0.0 | 1.0 | 0.00 | 0.00 | 0.00 | 84 | 1025.8 |
| 20260901020504 | 69 | 246 | 1.0 | 2.0 | 0.00 | 0.00 | 0.00 | 84 | 1025.8 |
| 20260901020004 | 69 | 235 | 1.0 | 2.0 | 0.00 | 0.00 | 0.00 | 84 | 1026.0 |
| 20260901015503 | 69 | 205 | 0.0 | 1.0 | 0.00 | 0.00 | 0.00 | 83 | 1025.7 |
| 20260901014504 | 69 | 159 | 1.0 | 2.0 | 0.00 | 0.00 | 0.00 | 83 | 1025.9 |
| 20260901014004 | 69 | 119 | 0.0 | 1.0 | 0.00 | 0.00 | 0.00 | 83 | 1025.9 |
| 20260901013504 | 70 | 119 | 0.0 | 1.0 | 0.00 | 0.00 | 0.00 | 83 | 1025.9 |
| 20260901013004 | 70 | 119 | 0.0 | 1.0 | 0.00 | 0.00 | 0.00 | 82 | 1026.1 |
| 20260901012504 | 70 | 120 | 0.0 | 2.0 | 0.00 | 0.00 | 0.00 | 82 | 1026.2 |
| 20260901012003 | 70 | 126 | 0.0 | 1.0 | 0.00 | 0.00 | 0.00 | 82 | 1026.1 |
| 20260901011503 | 70 | 125 | 0.0 | 1.0 | 0.00 | 0.00 | 0.00 | 82 | 1026.4 |
| 20260901011004 | 70 | 113 | 1.0 | 2.0 | 0.00 | 0.00 | 0.00 | 82 | 1026.3 |
| 20260901005504 | 70 | 213 | 1.0 | 1.0 | 0.00 | 0.00 | 0.00 | 84 | 1026.5 |
| 20260901004504 | 70 | 213 | 0.0 | 1.0 | 0.00 | 0.00 | 0.00 | 83 | 1026.4 |
| 20260901004004 | 70 | 221 | 1.0 | 1.0 | 0.00 | 0.00 | 0.00 | 83 | 1026.6 |
| 20260901003004 | 70 | 204 | 1.0 | 2.0 | 0.00 | 0.00 | 0.00 | 83 | 1026.5 |